KD8PH Weather Reports


Display with metric or nautical units.
time (UTC)temp
F
wind
direction
speed
MPH
gust
MPH
rain 1hr
in
rain 24hr
in
rain mn
in
humidity
%
barometer
mb
20260905191027 94 0.0 0.0 0.00 0.00 0.00 57 1010.7
20260905190021 94 0.0 0.0 0.00 0.00 0.00 60 1010.8
20260905185021 93 0.0 0.0 0.00 0.00 0.00 59 1011.0
20260905184021 93 0.0 0.0 0.00 0.00 0.00 61 1011.1
20260905183021 93 0.0 0.0 0.00 0.00 0.00 61 1011.3
20260905182021 93 0.0 0.0 0.00 0.00 0.00 60 1011.4
20260905181021 93 0.0 0.0 0.00 0.00 0.00 63 1011.7
20260905180021 92 0.0 0.0 0.00 0.00 0.00 67 1011.7
20260905175021 92 0.0 0.0 0.00 0.00 0.00 65 1011.7
20260905174021 91 0.0 0.0 0.00 0.00 0.00 66 1011.8
20260905173021 91 0.0 0.0 0.00 0.00 0.00 66 1011.9
20260905172021 90 0.0 0.0 0.00 0.00 0.00 71 1012.1
20260905171024 90 0.0 0.0 0.00 0.00 0.00 71 1012.1
20260905170023 89 0.0 0.0 0.00 0.00 0.00 75 1012.3
20260905165023 89 0.0 0.0 0.00 0.00 0.00 74 1012.4
20260905164023 89 0.0 0.0 0.00 0.00 0.00 75 1012.4
20260905163023 88 0.0 0.0 0.00 0.00 0.00 78 1012.6
20260905162028 87 0.0 0.0 0.00 0.00 0.00 78 1012.8
20260905161022 86 0.0 0.0 0.00 0.00 0.00 78 1012.9
20260905160022 86 0.0 0.0 0.00 0.00 0.00 78 1012.9
20260905155023 86 0.0 0.0 0.00 0.00 0.00 79 1013.0
20260905154023 86 0.0 0.0 0.00 0.00 0.00 80 1013.1
20260905153023 85 0.0 0.0 0.00 0.00 0.00 81 1013.1
20260905152022 85 0.0 0.0 0.00 0.00 0.00 81 1013.2
20260905151023 84 0.0 0.0 0.00 0.00 0.00 83 1013.2
20260905150023 83 0.0 0.0 0.00 0.00 0.00 83 1013.1
20260905145022 83 0.0 0.0 0.00 0.00 0.00 84 1013.1
20260905144022 83 0.0 0.0 0.00 0.00 0.00 84 1013.2
20260905143022 83 0.0 0.0 0.00 0.00 0.00 85 1013.3
20260905142022 82 0.0 0.0 0.00 0.00 0.00 85 1013.3
20260905141022 82 0.0 0.0 0.00 0.00 0.00 86 1013.4
20260905140022 82 0.0 0.0 0.00 0.00 0.00 85 1013.4
20260905135022 82 0.0 0.0 0.00 0.00 0.00 86 1013.5
20260905134022 82 0.0 0.0 0.00 0.00 0.00 86 1013.5
20260905133022 82 0.0 0.0 0.00 0.00 0.00 87 1013.7
20260905132026 81 0.0 0.0 0.00 0.00 0.00 87 1013.7
20260905131022 81 0.0 0.0 0.00 0.00 0.00 88 1013.9
20260905130024 81 0.0 0.0 0.00 0.00 0.00 88 1013.8
20260905125022 80 0.0 0.0 0.00 0.00 0.00 89 1013.7
20260905124022 79 0.0 0.0 0.00 0.00 0.00 90 1013.7
20260905123022 78 0.0 0.0 0.00 0.00 0.00 90 1013.6
20260905122023 78 0.0 0.0 0.00 0.00 0.00 90 1013.6
20260905121022 78 0.0 0.0 0.00 0.00 0.00 91 1013.6
20260905120022 77 0.0 0.0 0.00 0.00 0.00 91 1013.5
20260905115022 77 0.0 0.0 0.00 0.00 0.00 91 1013.3
20260905114022 77 0.0 0.0 0.00 0.00 0.00 91 1013.3
20260905113031 76 0.0 0.0 0.00 0.00 0.00 91 1013.1
20260905112022 76 0.0 0.0 0.00 0.00 0.00 91 1013.1
20260905111022 76 0.0 0.0 0.00 0.00 0.00 90 1012.8
20260905110022 76 0.0 0.0 0.00 0.00 0.00 90 1012.7
20260905105022 76 0.0 0.0 0.00 0.00 0.00 90 1012.6
20260905104022 76 0.0 0.0 0.00 0.00 0.00 90 1012.5
20260905103022 76 0.0 0.0 0.00 0.00 0.00 90 1012.3
20260905102022 77 0.0 0.0 0.00 0.00 0.00 90 1012.1
20260905101022 77 0.0 0.0 0.00 0.00 0.00 90 1012.3
20260905100027 77 0.0 0.0 0.00 0.00 0.00 90 1012.3
20260905095022 77 0.0 0.0 0.00 0.00 0.00 90 1012.3
20260905094022 77 0.0 0.0 0.00 0.00 0.00 90 1012.5
20260905093022 77 0.0 0.0 0.00 0.00 0.00 90 1012.3
20260905092022 77 0.0 0.0 0.00 0.00 0.00 90 1012.3
20260905091022 77 0.0 0.0 0.00 0.00 0.00 90 1012.1
20260905090022 77 0.0 0.0 0.00 0.00 0.00 89 1012.0
20260905085022 77 0.0 0.0 0.00 0.00 0.00 89 1012.0
20260905084022 77 0.0 0.0 0.00 0.00 0.00 89 1012.0
20260905083021 78 0.0 0.0 0.00 0.00 0.00 89 1012.1
20260905082022 78 0.0 0.0 0.00 0.00 0.00 88 1012.0
20260905081022 78 0.0 0.0 0.00 0.00 0.00 88 1011.9
20260905080022 78 0.0 0.0 0.00 0.00 0.00 88 1012.0
20260905075021 78 0.0 0.0 0.00 0.00 0.00 89 1012.0
20260905074021 78 0.0 0.0 0.00 0.00 0.00 88 1012.1
20260905073021 78 0.0 0.0 0.00 0.00 0.00 88 1011.9
20260905072021 78 0.0 0.0 0.00 0.00 0.00 89 1012.0
20260905071024 78 0.0 0.0 0.00 0.00 0.00 88 1011.7
20260905070021 78 0.0 0.0 0.00 0.00 0.00 88 1011.7
20260905065021 78 0.0 0.0 0.00 0.00 0.00 88 1011.8
20260905064021 79 0.0 0.0 0.00 0.00 0.00 88 1012.0
20260905063022 79 0.0 0.0 0.00 0.00 0.00 88 1012.0
20260905062021 79 0.0 0.0 0.00 0.00 0.00 87 1012.1
20260905061022 79 0.0 0.0 0.00 0.00 0.00 87 1012.1
20260905060021 79 0.0 0.0 0.00 0.00 0.00 87 1012.2
20260905055021 80 0.0 0.0 0.00 0.00 0.00 87 1012.4
20260905054021 80 0.0 0.0 0.00 0.00 0.00 87 1012.5
20260905053021 79 0.0 0.0 0.00 0.00 0.00 87 1012.3
20260905052021 80 0.0 0.0 0.00 0.00 0.00 87 1012.3
20260905051027 80 0.0 0.0 0.00 0.00 0.00 87 1012.4
20260905050021 80 0.0 0.0 0.00 0.00 0.00 87 1012.3
20260905045021 80 0.0 0.0 0.00 0.00 0.00 86 1012.3
20260905044021 80 0.0 0.0 0.00 0.00 0.00 86 1012.4
20260905043021 80 0.0 0.0 0.00 0.00 0.00 86 1012.4
20260905042023 81 0.0 0.0 0.00 0.00 0.00 85 1012.5
20260905041023 81 0.0 0.0 0.00 0.00 0.00 85 1012.5
20260905040026 81 0.0 0.0 0.00 0.00 0.00 84 1012.5
20260905035023 81 0.0 0.0 0.00 0.00 0.00 84 1012.6
20260905034023 82 0.0 0.0 0.00 0.00 0.00 84 1012.7
20260905033023 82 0.0 0.0 0.00 0.00 0.00 83 1012.7
20260905032023 82 0.0 0.0 0.00 0.00 0.00 84 1012.8
20260905031023 82 0.0 0.0 0.00 0.00 0.00 83 1012.9
20260905030023 83 0.0 0.0 0.00 0.00 0.00 82 1012.9
20260905025023 83 0.0 0.0 0.00 0.00 0.00 81 1012.9
20260905024022 84 0.0 0.0 0.00 0.00 0.00 81 1013.1
20260905023022 85 0.0 0.0 0.00 0.00 0.00 82 1013.1
20260905022022 84 0.0 0.0 0.00 0.00 0.00 82 1013.2
20260905021026 84 0.0 0.0 0.00 0.00 0.00 80 1013.1
20260905020022 85 0.0 0.0 0.00 0.00 0.00 80 1013.1
20260905015042 85 0.0 0.0 0.00 0.00 0.00 79 1012.9
20260905014022 86 0.0 0.0 0.00 0.00 0.00 81 1012.8
20260905013023 85 0.0 0.0 0.00 0.00 0.00 80 1012.8
20260905012022 86 0.0 0.0 0.00 0.00 0.00 77 1012.7
20260905011023 86 0.0 0.0 0.00 0.00 0.00 77 1012.7
20260905010022 87 0.0 0.0 0.00 0.00 0.00 77 1012.7
20260905005022 87 0.0 0.0 0.00 0.00 0.00 74 1012.5
20260905004023 87 0.0 0.0 0.00 0.00 0.00 72 1012.4
20260905003022 88 0.0 0.0 0.00 0.00 0.00 72 1012.4
20260905002022 89 0.0 0.0 0.00 0.00 0.00 72 1012.3
20260905001022 90 0.0 0.0 0.00 0.00 0.00 70 1012.2
20260905000022 90 0.0 0.0 0.00 0.00 0.00 67 1012.2
20260904235022 91 0.0 0.0 0.00 0.00 0.00 63 1012.2
20260904234030 92 0.0 0.0 0.00 0.00 0.00 63 1012.3
20260904233022 92 0.0 0.0 0.00 0.00 0.00 57 1012.3
20260904232024 92 0.0 0.0 0.00 0.00 0.00 58 1012.3
20260904231022 93 0.0 0.0 0.00 0.00 0.00 59 1012.2
20260904230022 93 0.0 0.0 0.00 0.00 0.00 60 1012.0
20260904225022 93 0.0 0.0 0.00 0.00 0.00 63 1012.0
20260904224022 94 0.0 0.0 0.00 0.00 0.00 57 1012.0
20260904223022 94 0.0 0.0 0.00 0.00 0.00 56 1012.0
20260904222023 94 0.0 0.0 0.00 0.00 0.00 55 1011.9
20260904221022 94 0.0 0.0 0.00 0.00 0.00 56 1011.9
20260904220023 93 0.0 0.0 0.00 0.00 0.00 55 1011.8
20260904215022 93 0.0 0.0 0.00 0.00 0.00 56 1011.8
20260904214021 94 0.0 0.0 0.00 0.00 0.00 55 1011.9
20260904213022 94 0.0 0.0 0.00 0.00 0.00 55 1012.0
20260904212022 94 0.0 0.0 0.00 0.00 0.00 56 1012.0
20260904211022 94 0.0 0.0 0.00 0.00 0.00 56 1012.0
20260904210022 94 0.0 0.0 0.00 0.00 0.00 54 1012.2
20260904205031 94 0.0 0.0 0.00 0.00 0.00 53 1012.1
20260904204022 94 0.0 0.0 0.00 0.00 0.00 56 1012.3
20260904203022 94 0.0 0.0 0.00 0.00 0.00 54 1012.5
20260904202022 94 0.0 0.0 0.00 0.00 0.00 54 1012.6
20260904201030 94 0.0 0.0 0.00 0.00 0.00 52 1012.8
20260904200021 94 0.0 0.0 0.00 0.00 0.00 50 1012.9
20260904195022 94 0.0 0.0 0.00 0.00 0.00 50 1013.1
20260904194021 94 0.0 0.0 0.00 0.00 0.00 49 1013.1
20260904193021 94 0.0 0.0 0.00 0.00 0.00 52 1013.3
20260904192021 94 0.0 0.0 0.00 0.00 0.00 53 1013.4